Change the Weather History Date:

Saturday, December 7, 2013

  Actual Average Record
Temperature  
Mean Temperature 25 °F -  
Max Temperature 27 °F 61 °F 79 °F (2007)
Min Temperature 23 °F 42 °F 23 °F (2005)
Degree Days  
Heating Degree Days 40    
Moisture  
Dew Point 20 °F    
Average Humidity 79    
Maximum Humidity 88    
Minimum Humidity 74    
Precipitation  
Precipitation 0.00 in - - ()
Sea Level Pressure  
Sea Level Pressure 30.48 in    
Wind  
Wind Speed 10 mph (NNW)    
Max Wind Speed 14 mph    
Max Gust Speed 22 mph    
Visibility 10 miles    
Events      
Averages and records for this station are not official NWS values.
T = Trace of Precipitation, MM = Missing Value Source: NWS Daily Summary

Daily Weather History Graph

Daily Weather History Graph

Search for Another Location

Airport or City:

Trip Planner

Search our weather history database for the weather conditions in past years. The results will help you decide how hot, cold, wet, or windy it might be!

Date:

Astronomy

Dec. 07, 2013 Rise Set
Actual Time 7:16 AM CST 5:28 PM CST
Civil Twilight 6:49 AM CST 5:54 PM CST
Nautical Twilight 6:19 AM CST 6:25 PM CST
Astronomical Twilight 5:50 AM CST 6:54 PM CST
Moon 11:15 AM CST (12/7) 10:56 PM CST (12/7)
Length of Visible Light 11h 05m
Length of Day
10h 11m
Waxing Crescent, 29% of the Moon is Illuminated
Dec 7
Waxing Crescent
Dec 9
First Quarter
Dec 17
Full
Dec 25
Last Quarter
Jan 1
New

Hourly Weather History & Observations

Time (CST) Temp. Windchill Dew Point Humidity Pressure Visibility Wind Dir Wind Speed Gust Speed Precip Events Conditions
12:56 AM 26.1 °F 14.5 °F 19.9 °F 78% 30.56 in 10.0 mi NNW 13.8 mph - N/A   Clear
1:56 AM 25.0 °F 16.3 °F 19.0 °F 78% 30.58 in 10.0 mi NNW 8.1 mph - N/A   Clear
2:56 AM 25.0 °F 13.6 °F 18.0 °F 75% 30.56 in 10.0 mi NNW 12.7 mph 19.6 mph N/A   Clear
3:56 AM 24.1 °F 15.2 °F 18.0 °F 77% 30.58 in 10.0 mi North 8.1 mph - N/A   Mostly Cloudy
4:56 AM 24.1 °F 13.7 °F 17.1 °F 75% 30.57 in 10.0 mi North 10.4 mph - N/A   Overcast
5:56 AM 24.1 °F 12.5 °F 17.1 °F 75% 30.58 in 10.0 mi NNW 12.7 mph 21.9 mph N/A   Overcast
6:21 AM 24.8 °F 14.0 °F 17.6 °F 74% 30.44 in 10.0 mi NNW 11.5 mph 21.9 mph N/A   Overcast
6:56 AM 23.0 °F 11.1 °F 17.1 °F 78% 30.58 in 10.0 mi NNW 12.7 mph 19.6 mph N/A   Overcast
7:56 AM 23.0 °F 12.4 °F 18.0 °F 81% 30.60 in 10.0 mi NNW 10.4 mph - N/A   Overcast
8:56 AM 23.0 °F 13.1 °F 17.1 °F 78% 30.62 in 10.0 mi NNW 9.2 mph 17.3 mph N/A   Overcast
9:22 AM 24.8 °F 14.0 °F 17.6 °F 74% 30.47 in 10.0 mi NNW 11.5 mph - N/A   Overcast
9:56 AM 25.0 °F 14.2 °F 18.0 °F 75% 30.60 in 10.0 mi NNW 11.5 mph 19.6 mph N/A   Overcast
10:17 AM 24.8 °F 13.4 °F 17.6 °F 74% 30.46 in 10.0 mi NNW 12.7 mph - N/A   Overcast
10:28 AM 24.8 °F 14.6 °F 17.6 °F 74% 30.46 in 10.0 mi NW 10.4 mph - N/A   Overcast
10:56 AM 25.0 °F 13.6 °F 18.0 °F 75% 30.58 in 10.0 mi NNW 12.7 mph 19.6 mph N/A   Overcast
11:56 AM 26.1 °F 15.6 °F 19.0 °F 75% 30.56 in 10.0 mi NW 11.5 mph - N/A   Overcast
12:56 PM 26.1 °F 14.5 °F 19.9 °F 78% 30.52 in 10.0 mi NW 13.8 mph - N/A   Overcast
1:56 PM 27.0 °F 18.7 °F 19.9 °F 75% 30.50 in 10.0 mi NNW 8.1 mph - N/A   Overcast
2:56 PM 27.0 °F 18.7 °F 21.0 °F 78% 30.45 in 10.0 mi NNW 8.1 mph - N/A   Overcast
3:56 PM 27.0 °F 18.7 °F 21.0 °F 78% 30.43 in 10.0 mi North 8.1 mph - N/A   Overcast
4:56 PM 26.1 °F 17.6 °F 21.0 °F 81% 30.45 in 10.0 mi North 8.1 mph - N/A   Overcast
5:56 PM 26.1 °F 17.6 °F 21.0 °F 81% 30.44 in 10.0 mi North 8.1 mph - N/A   Overcast
6:53 PM 26.6 °F 18.2 °F 21.2 °F 80% 30.31 in 10.0 mi North 8.1 mph - N/A   Overcast
6:56 PM 26.1 °F 18.4 °F 21.0 °F 81% 30.45 in 10.0 mi North 6.9 mph - N/A   Overcast
7:56 PM 26.1 °F 18.4 °F 21.9 °F 84% 30.46 in 10.0 mi NNW 6.9 mph - N/A   Overcast
8:16 PM 26.6 °F 19.1 °F 21.2 °F 80% 30.32 in 10.0 mi NW 6.9 mph - N/A   Overcast
8:56 PM 26.1 °F 19.4 °F 21.9 °F 84% 30.44 in 9.0 mi North 5.8 mph - N/A   Overcast
9:56 PM 26.1 °F 19.4 °F 23.0 °F 88% 30.45 in 10.0 mi NW 5.8 mph - N/A   Overcast
10:56 PM 26.1 °F 20.5 °F 23.0 °F 88% 30.43 in 7.0 mi NNW 4.6 mph - N/A   Overcast
11:04 PM 26.6 °F 21.2 °F 23.0 °F 86% 30.29 in 7.0 mi North 4.6 mph - N/A   Overcast
11:31 PM 26.6 °F - 23.0 °F 86% 30.27 in 9.0 mi Calm Calm - N/A   Overcast
11:56 PM 26.1 °F 21.9 °F 23.0 °F 88% 30.40 in 10.0 mi North 3.5 mph - N/A   Overcast